Location: San Vito
(41.8833°N, 12.9833°E)
Time: 03:20:46
(UTC+00:00)

Cosmos 2082 Rocket - Pass Details

Date: 17 November 2019
Orbit: 833 x 853 km, 71.0° (Epoch: 12 December)

Event Time Altitude Azimuth Distance (km) Brightness Sun altitude
Exits shadow 02:43:30 26° 37° (NE) 1,612 3.9 -36.4°
Drops below altitude 10° 02:45:57 10° 30° (NNE) 2,489 5.0 -35.9°
Sets 02:48:26 0° 28° (NNE) 3,427 5.8 -35.5°
